STARLINK-36083 (66857 NORAD) Tracking and Keplerian Element Data

This shows tracking and keplerian element data for the satellite.

Feedback or suggestion? Click here.




ElementValue
Catalog66857
NameSTARLINK-36083
Epoch Orbit260
Epoch Day354.25003472
Epoch Year2025
RAAN76.3475
Inclination43.0007
Eccentricity9.33E-05
Argument of Perigee263.9244
Mean Anonmoly239.5314
Mean Motion15.75426243
Decay Rate-0.01726545
L11 66857U 25281K 25354.25003472 -.01726545 00000+0 -12532-1 0 9997
L22 66857 43.0007 76.3475 0000933 263.9244 239.5314 15.75426243 2609



Live tracking and technical data element details for STARLINK-36083 (NORAD 66857). STARLINK-36083 can be tracked NOW for your location showing map with azimuth and elevation plus other details from your city location.







IsCatalogInMostPopularTable: catalog: 66857, numindb: 10
Update: records affected: 1



GetName: 66857 STARLINK-36083

Hit Count: updated at: Tue, 10 Feb 2026 02:11:56 GMT